QPF
0.01 0.01 0.02 0.02 0.01 0.01 0.02 0.03 0.02 0.01 0.00 0.00 0.00 0.01 0.01 0.01 0.01 0.01 0.01 0.01 0.01 0.00 0.01 0.01 0.01 0.01 0.02 0.03 0.03 0.02 0.03 0.06 0.05 0.04 0.04 0.07 0.13 0.17 0.15 0.08 0.04 0.03 0.04 0.04
0.01 0.00 0.01 0.01 0.01 0.01 0.01 0.01 0.02 0.01 0.00 0.00 0.00 0.00 0.00 0.00 0.01 0.01 0.02 0.02 0.01 0.01 0.01 0.01 0.01 0.01 0.01 0.02 0.02 0.02 0.02 0.03 0.04 0.04 0.04 0.05 0.08 0.14 0.16 0.14 0.09 0.05 0.03 0.03
0.02 0.01 0.02 0.02 0.01 0.01 0.02 0.02 0.02 0.01 0.01 0.00 0.00 0.00 0.00 0.01 0.01 0.01 0.01 0.02 0.02 0.01 0.01 0.01 0.01 0.01 0.01 0.01 0.01 0.01 0.01 0.02 0.04 0.04 0.04 0.05 0.05 0.08 0.13 0.15 0.13 0.09 0.05 0.04
0.04 0.02 0.03 0.02 0.01 0.01 0.02 0.02 0.02 0.01 0.01 0.00 0.00 0.00 0.00 0.01 0.01 0.01 0.01 0.02 0.02 0.01 0.01 0.01 0.01 0.01 0.00 0.00 0.01 0.01 0.01 0.02 0.02 0.04 0.04 0.05 0.06 0.06 0.08 0.11 0.13 0.11 0.09 0.05
0.06 0.04 0.02 0.01 0.01 0.02 0.02 0.02 0.02 0.01 0.00 0.00 0.00 0.00 0.01 0.01 0.01 0.01 0.01 0.01 0.01 0.01 0.01 0.01 0.01 0.01 0.01 0.00 0.00 0.01 0.01 0.01 0.02 0.02 0.03 0.04 0.05 0.06 0.07 0.09 0.10 0.11 0.10 0.08
0.06 0.04 0.02 0.01 0.01 0.01 0.02 0.02 0.02 0.01 0.01 0.01 0.00 0.00 0.00 0.00 0.01 0.01 0.00 0.00 0.01 0.01 0.01 0.01 0.01 0.02 0.01 0.01 0.00 0.00 0.01 0.01 0.01 0.02 0.02 0.03 0.04 0.04 0.05 0.07 0.08 0.09 0.09 0.09
0.05 0.04 0.02 0.01 0.01 0.01 0.02 0.03 0.02 0.01 0.01 0.01 0.01 0.01 0.01 0.01 0.01 0.01 0.00 0.00 0.00 0.01 0.01 0.01 0.01 0.02 0.02 0.01 0.01 0.00 0.00 0.01 0.01 0.01 0.02 0.02 0.03 0.04 0.05 0.06 0.06 0.07 0.08 0.08
0.03 0.04 0.02 0.01 0.01 0.02 0.02 0.02 0.01 0.01 0.01 0.01 0.01 0.01 0.01 0.02 0.02 0.02 0.01 0.00 0.01 0.01 0.01 0.01 0.01 0.01 0.02 0.02 0.01 0.01 0.01 0.01 0.01 0.02 0.02 0.02 0.04 0.04 0.05 0.06 0.06 0.06 0.06 0.07
0.02 0.02 0.01 0.01 0.01 0.01 0.01 0.01 0.01 0.00 0.00 0.01 0.01 0.01 0.02 0.02 0.03 0.02 0.01 0.01 0.01 0.01 0.01 0.01 0.02 0.02 0.02 0.02 0.01 0.01 0.01 0.02 0.02 0.02 0.03 0.03 0.03 0.03 0.04 0.05 0.07 0.06 0.06 0.05
0.01 0.01 0.01 0.00 0.00 0.01 0.01 0.01 0.01 0.00 0.00 0.00 0.01 0.01 0.02 0.02 0.03 0.03 0.01 0.01 0.01 0.01 0.01 0.02 0.02 0.02 0.02 0.02 0.02 0.02 0.02 0.02 0.02 0.03 0.04 0.04 0.03 0.03 0.03 0.04 0.05 0.06 0.05 0.04
0.01 0.01 0.01 0.00 0.00 0.00 0.00 0.01 0.00 0.00 0.00 0.00 0.01 0.01 0.02 0.03 0.04 0.04 0.02 0.01 0.01 0.01 0.01 0.03 0.03 0.03 0.03 0.03 0.03 0.02 0.03 0.03 0.03 0.04 0.04 0.05 0.05 0.04 0.03 0.02 0.02 0.03 0.03 0.03
0.01 0.01 0.01 0.00 0.00 0.00 0.01 0.01 0.00 0.00 0.00 0.00 0.00 0.01 0.01 0.02 0.03 0.04 0.02 0.01 0.01 0.02 0.02 0.03 0.04 0.04 0.04 0.04 0.03 0.03 0.03 0.04 0.05 0.05 0.05 0.05 0.06 0.06 0.06 0.05 0.03 0.03 0.03 0.03
0.00 0.00 0.00 0.00 0.00 0.00 0.00 0.01 0.01 0.00 0.00 0.00 0.00 0.01 0.01 0.01 0.03 0.04 0.03 0.02 0.02 0.02 0.02 0.03 0.05 0.05 0.05 0.04 0.04 0.03 0.03 0.05 0.06 0.06 0.05 0.05 0.05 0.05 0.05 0.07 0.07 0.06 0.04 0.04
0.00 0.00 0.00 0.00 0.00 0.00 0.00 0.00 0.00 0.00 0.00 0.00 0.01 0.01 0.01 0.01 0.02 0.03 0.03 0.02 0.03 0.02 0.03 0.04 0.05 0.07 0.06 0.05 0.04 0.04 0.04 0.07 0.08 0.07 0.06 0.05 0.05 0.05 0.03 0.03 0.05 0.06 0.05 0.04
0.00 0.00 0.00 0.00 0.00 0.00 0.00 0.00 0.00 0.00 0.00 0.00 0.01 0.01 0.02 0.02 0.02 0.03 0.03 0.03 0.05 0.04 0.03 0.04 0.06 0.07 0.07 0.06 0.05 0.06 0.06 0.09 0.10 0.08 0.08 0.06 0.05 0.05 0.03 0.02 0.02 0.03 0.04 0.05
0.00 0.00 0.00 0.00 0.00 0.00 0.00 0.00 0.00 0.00 0.00 0.00 0.01 0.01 0.02 0.02 0.02 0.03 0.03 0.04 0.06 0.06 0.04 0.04 0.05 0.07 0.08 0.07 0.06 0.07 0.08 0.10 0.11 0.10 0.09 0.08 0.05 0.04 0.03 0.02 0.02 0.02 0.02 0.03
0.01 0.00 0.00 0.00 0.00 0.00 0.00 0.00 0.00 0.00 0.00 0.00 0.01 0.01 0.02 0.02 0.02 0.03 0.04 0.05 0.07 0.07 0.04 0.04 0.05 0.06 0.08 0.08 0.07 0.08 0.09 0.10 0.12 0.11 0.09 0.08 0.05 0.03 0.02 0.02 0.01 0.02 0.01 0.02
0.01 0.01 0.01 0.01 0.01 0.01 0.01 0.01 0.01 0.01 0.01 0.01 0.01 0.02 0.02 0.02 0.02 0.03 0.05 0.06 0.08 0.07 0.05 0.05 0.06 0.07 0.07 0.08 0.08 0.09 0.09 0.10 0.12 0.10 0.08 0.07 0.06 0.04 0.03 0.02 0.01 0.02 0.02 0.03
0.01 0.01 0.01 0.01 0.01 0.01 0.01 0.01 0.01 0.01 0.01 0.01 0.02 0.02 0.02 0.02 0.02 0.04 0.06 0.07 0.08 0.07 0.07 0.08 0.08 0.07 0.07 0.08 0.08 0.08 0.10 0.11 0.12 0.11 0.09 0.08 0.07 0.04 0.03 0.02 0.02 0.02 0.02 0.02
0.01 0.01 0.01 0.01 0.01 0.01 0.01 0.01 0.01 0.01 0.00 0.01 0.02 0.02 0.02 0.02 0.03 0.04 0.05 0.06 0.06 0.06 0.07 0.09 0.09 0.08 0.08 0.09 0.09 0.08 0.10 0.10 0.11 0.10 0.09 0.07 0.06 0.05 0.03 0.03 0.02 0.02 0.01 0.02
0.01 0.01 0.01 0.01 0.01 0.01 0.01 0.01 0.01 0.01 0.01 0.01 0.02 0.02 0.02 0.02 0.03 0.03 0.04 0.05 0.06 0.07 0.08 0.09 0.10 0.09 0.09 0.10 0.09 0.08 0.09 0.09 0.09 0.10 0.09 0.07 0.06 0.05 0.04 0.03 0.03 0.02 0.02 0.02
0.01 0.01 0.01 0.01 0.01 0.01 0.01 0.01 0.02 0.01 0.01 0.01 0.01 0.02 0.03 0.02 0.02 0.02 0.03 0.05 0.06 0.07 0.08 0.08 0.09 0.09 0.10 0.10 0.08 0.08 0.09 0.09 0.09 0.09 0.08 0.07 0.06 0.06 0.05 0.04 0.03 0.02 0.02 0.02
0.01 0.01 0.01 0.02 0.02 0.02 0.01 0.01 0.02 0.02 0.02 0.02 0.02 0.03 0.03 0.02 0.02 0.02 0.03 0.04 0.05 0.07 0.08 0.08 0.09 0.09 0.10 0.09 0.08 0.08 0.08 0.08 0.07 0.07 0.07 0.06 0.06 0.06 0.05 0.03 0.03 0.03 0.03 0.03
0.01 0.01 0.01 0.01 0.02 0.02 0.02 0.01 0.02 0.02 0.02 0.02 0.02 0.03 0.03 0.02 0.03 0.03 0.04 0.05 0.06 0.08 0.08 0.08 0.08 0.08 0.09 0.08 0.07 0.07 0.07 0.07 0.06 0.06 0.06 0.06 0.07 0.06 0.05 0.04 0.03 0.03 0.04 0.04
0.01 0.01 0.01 0.01 0.02 0.02 0.02 0.02 0.02 0.02 0.02 0.02 0.02 0.02 0.03 0.03 0.04 0.04 0.04 0.06 0.07 0.08 0.08 0.08 0.08 0.08 0.09 0.08 0.07 0.07 0.07 0.07 0.06 0.06 0.06 0.06 0.07 0.07 0.05 0.04 0.03 0.03 0.04 0.04
0.02 0.02 0.02 0.02 0.03 0.03 0.03 0.03 0.03 0.03 0.03 0.03 0.02 0.02 0.03 0.04 0.05 0.05 0.05 0.06 0.07 0.09 0.09 0.08 0.08 0.09 0.09 0.08 0.07 0.07 0.07 0.07 0.08 0.07 0.06 0.06 0.06 0.06 0.05 0.04 0.04 0.04 0.04 0.05
0.01 0.02 0.02 0.01 0.02 0.02 0.03 0.03 0.03 0.03 0.03 0.04 0.03 0.03 0.03 0.04 0.05 0.05 0.06 0.06 0.07 0.09 0.09 0.10 0.09 0.09 0.10 0.09 0.08 0.07 0.07 0.07 0.07 0.07 0.06 0.06 0.06 0.06 0.05 0.05 0.05 0.04 0.05 0.05
MSLP
1011.77 1011.59 1011.38 1011.10 1010.71 1010.22 1009.60 1008.91 1008.16 1007.41 1006.72 1006.11 1005.64 1005.29 1005.07 1004.96 1004.90 1004.89 1004.86 1004.82 1004.72 1004.58 1004.39 1004.15 1003.87 1003.54 1003.16 1002.70 1002.16 1001.55 1000.87 1000.16 999.45 998.82 998.32 998.03 997.98 998.22 998.74 999.51 1000.48 1001.58 1002.74 1003.87
1010.90 1010.56 1010.18 1009.73 1009.20 1008.61 1007.96 1007.30 1006.66 1006.08 1005.59 1005.22 1004.96 1004.81 1004.73 1004.70 1004.69 1004.65 1004.58 1004.46 1004.30 1004.10 1003.88 1003.65 1003.40 1003.12 1002.79 1002.39 1001.90 1001.31 1000.62 999.87 999.11 998.40 997.81 997.42 997.30 997.46 997.93 998.68 999.64 1000.76 1001.96 1003.14
1010.03 1009.54 1008.99 1008.38 1007.73 1007.05 1006.38 1005.75 1005.22 1004.80 1004.51 1004.34 1004.30 1004.33 1004.39 1004.46 1004.48 1004.44 1004.33 1004.15 1003.92 1003.66 1003.40 1003.15 1002.90 1002.65 1002.36 1002.00 1001.54 1000.97 1000.29 999.53 998.74 997.97 997.33 996.88 996.69 996.80 997.22 997.93 998.88 1000.01 1001.21 1002.42
1009.22 1008.61 1007.93 1007.20 1006.45 1005.71 1005.04 1004.46 1004.03 1003.75 1003.63 1003.65 1003.77 1003.95 1004.13 1004.26 1004.30 1004.25 1004.09 1003.85 1003.55 1003.23 1002.91 1002.63 1002.37 1002.11 1001.84 1001.51 1001.07 1000.53 999.86 999.10 998.30 997.52 996.85 996.37 996.14 996.21 996.59 997.27 998.20 999.30 1000.51 1001.73
1008.50 1007.82 1007.07 1006.28 1005.48 1004.74 1004.09 1003.58 1003.24 1003.07 1003.08 1003.23 1003.47 1003.73 1003.96 1004.11 1004.15 1004.05 1003.83 1003.51 1003.14 1002.75 1002.39 1002.06 1001.77 1001.51 1001.24 1000.91 1000.50 999.97 999.33 998.58 997.79 997.02 996.35 995.86 995.62 995.67 996.03 996.67 997.57 998.65 999.84 1001.06
1007.83 1007.14 1006.39 1005.61 1004.85 1004.15 1003.57 1003.14 1002.89 1002.82 1002.91 1003.12 1003.40 1003.68 1003.90 1004.01 1003.98 1003.81 1003.51 1003.11 1002.66 1002.21 1001.79 1001.43 1001.11 1000.84 1000.56 1000.24 999.83 999.32 998.70 997.98 997.22 996.47 995.82 995.35 995.11 995.15 995.49 996.12 996.99 998.05 999.22 1000.42
1007.15 1006.53 1005.86 1005.17 1004.51 1003.92 1003.44 1003.11 1002.94 1002.93 1003.05 1003.26 1003.51 1003.73 1003.87 1003.89 1003.75 1003.48 1003.08 1002.60 1002.08 1001.58 1001.12 1000.73 1000.40 1000.12 999.84 999.52 999.12 998.62 998.02 997.32 996.59 995.87 995.25 994.80 994.58 994.63 994.97 995.59 996.44 997.48 998.64 999.84
1006.41 1005.92 1005.39 1004.87 1004.37 1003.93 1003.59 1003.37 1003.27 1003.29 1003.39 1003.55 1003.70 1003.80 1003.80 1003.67 1003.40 1003.00 1002.51 1001.95 1001.39 1000.86 1000.39 1000.00 999.67 999.39 999.11 998.80 998.40 997.91 997.31 996.63 995.92 995.23 994.64 994.22 994.02 994.10 994.45 995.06 995.92 996.95 998.11 999.33
1005.58 1005.26 1004.94 1004.62 1004.32 1004.06 1003.87 1003.75 1003.71 1003.73 1003.78 1003.83 1003.84 1003.77 1003.59 1003.29 1002.87 1002.35 1001.77 1001.16 1000.58 1000.05 999.61 999.25 998.95 998.69 998.43 998.12 997.72 997.22 996.62 995.94 995.24 994.57 994.00 993.61 993.44 993.54 993.92 994.56 995.43 996.48 997.66 998.90
1004.69 1004.57 1004.47 1004.37 1004.28 1004.21 1004.16 1004.13 1004.12 1004.10 1004.06 1003.97 1003.81 1003.55 1003.18 1002.70 1002.14 1001.52 1000.88 1000.25 999.68 999.20 998.81 998.50 998.26 998.04 997.80 997.49 997.09 996.57 995.95 995.26 994.55 993.89 993.34 992.97 992.84 992.98 993.39 994.07 994.98 996.07 997.29 998.58
1003.82 1003.91 1004.01 1004.12 1004.22 1004.31 1004.38 1004.40 1004.39 1004.31 1004.16 1003.91 1003.57 1003.11 1002.56 1001.93 1001.25 1000.55 999.87 999.26 998.74 998.32 998.01 997.78 997.60 997.42 997.20 996.90 996.48 995.94 995.29 994.58 993.86 993.19 992.66 992.33 992.24 992.43 992.90 993.64 994.62 995.77 997.05 998.39
1003.10 1003.36 1003.64 1003.92 1004.17 1004.37 1004.50 1004.54 1004.49 1004.33 1004.05 1003.65 1003.12 1002.50 1001.79 1001.03 1000.25 999.51 998.83 998.25 997.79 997.45 997.21 997.06 996.93 996.79 996.59 996.27 995.83 995.26 994.59 993.86 993.13 992.47 991.97 991.68 991.66 991.92 992.48 993.30 994.36 995.59 996.95 998.37
1002.65 1003.04 1003.44 1003.83 1004.16 1004.42 1004.56 1004.58 1004.46 1004.20 1003.78 1003.23 1002.55 1001.78 1000.94 1000.08 999.24 998.47 997.80 997.25 996.84 996.57 996.39 996.29 996.20 996.07 995.87 995.54 995.07 994.48 993.79 993.05 992.34 991.71 991.27 991.05 991.12 991.49 992.15 993.09 994.25 995.58 997.03 998.54
1002.52 1003.00 1003.47 1003.90 1004.26 1004.50 1004.62 1004.57 1004.37 1003.99 1003.45 1002.76 1001.96 1001.07 1000.13 999.20 998.31 997.51 996.84 996.31 995.92 995.67 995.51 995.42 995.32 995.18 994.95 994.60 994.11 993.51 992.83 992.12 991.46 990.92 990.57 990.47 990.66 991.17 991.97 993.03 994.32 995.76 997.31 998.89
1002.74 1003.24 1003.72 1004.14 1004.46 1004.66 1004.70 1004.56 1004.26 1003.77 1003.12 1002.33 1001.42 1000.44 999.43 998.44 997.51 996.68 995.98 995.42 995.01 994.72 994.53 994.38 994.24 994.06 993.79 993.41 992.92 992.33 991.70 991.07 990.51 990.10 989.90 989.97 990.33 991.00 991.96 993.17 994.58 996.14 997.78 999.43
1003.21 1003.70 1004.14 1004.50 1004.75 1004.86 1004.80 1004.57 1004.16 1003.58 1002.84 1001.97 1000.99 999.95 998.88 997.84 996.85 995.97 995.20 994.57 994.07 993.69 993.40 993.16 992.93 992.67 992.35 991.95 991.48 990.96 990.42 989.93 989.54 989.32 989.32 989.60 990.16 991.02 992.16 993.52 995.06 996.72 998.43 1000.13
1003.83 1004.26 1004.63 1004.90 1005.05 1005.05 1004.89 1004.56 1004.07 1003.41 1002.61 1001.69 1000.66 999.58 998.47 997.37 996.32 995.34 994.47 993.72 993.09 992.57 992.13 991.76 991.41 991.07 990.70 990.31 989.89 989.47 989.09 988.79 988.62 988.64 988.89 989.42 990.21 991.27 992.58 994.09 995.74 997.48 999.23 1000.96
1004.43 1004.79 1005.06 1005.23 1005.26 1005.16 1004.90 1004.49 1003.93 1003.23 1002.39 1001.44 1000.39 999.28 998.13 996.97 995.84 994.76 993.76 992.86 992.06 991.36 990.75 990.22 989.76 989.33 988.94 988.58 988.26 988.00 987.82 987.76 987.86 988.16 988.70 989.48 990.51 991.77 993.24 994.86 996.59 998.38 1000.15 1001.87
1004.91 1005.17 1005.34 1005.39 1005.32 1005.11 1004.78 1004.30 1003.70 1002.96 1002.11 1001.15 1000.10 998.97 997.79 996.57 995.36 994.17 993.02 991.96 990.98 990.10 989.33 988.66 988.09 987.62 987.24 986.96 986.78 986.70 986.77 986.98 987.38 987.98 988.79 989.83 991.07 992.51 994.10 995.81 997.58 999.37 1001.12 1002.81
1005.21 1005.36 1005.41 1005.35 1005.18 1004.89 1004.48 1003.96 1003.33 1002.59 1001.74 1000.78 999.73 998.59 997.38 996.12 994.82 993.53 992.25 991.04 989.90 988.87 987.97 987.20 986.57 986.09 985.77 985.60 985.59 985.74 986.06 986.57 987.25 988.13 989.21 990.46 991.89 993.45 995.12 996.86 998.63 1000.39 1002.09 1003.71
1005.33 1005.37 1005.31 1005.15 1004.88 1004.52 1004.06 1003.50 1002.85 1002.10 1001.26 1000.31 999.26 998.12 996.89 995.58 994.22 992.84 991.47 990.14 988.90 987.77 986.78 985.97 985.34 984.90 984.67 984.65 984.84 985.22 985.80 986.56 987.51 988.64 989.92 991.35 992.90 994.53 996.23 997.96 999.68 1001.37 1002.99 1004.53
1005.35 1005.28 1005.11 1004.85 1004.50 1004.07 1003.55 1002.97 1002.30 1001.55 1000.70 999.77 998.72 997.57 996.33 994.99 993.59 992.16 990.73 989.35 988.05 986.88 985.88 985.08 984.50 984.16 984.06 984.20 984.58 985.18 985.99 986.98 988.14 989.45 990.88 992.41 994.02 995.68 997.35 999.03 1000.67 1002.27 1003.79 1005.24
1005.35 1005.16 1004.90 1004.55 1004.13 1003.63 1003.08 1002.46 1001.77 1001.00 1000.15 999.21 998.16 997.01 995.75 994.40 992.99 991.55 990.11 988.72 987.43 986.29 985.34 984.61 984.13 983.91 983.96 984.27 984.83 985.62 986.61 987.77 989.07 990.49 992.00 993.57 995.18 996.80 998.41 1000.00 1001.54 1003.04 1004.47 1005.84
1005.39 1005.11 1004.76 1004.34 1003.85 1003.31 1002.71 1002.05 1001.34 1000.55 999.68 998.72 997.66 996.50 995.24 993.89 992.49 991.07 989.66 988.32 987.10 986.04 985.19 984.58 984.23 984.15 984.35 984.82 985.53 986.46 987.57 988.83 990.20 991.66 993.18 994.73 996.28 997.82 999.34 1000.83 1002.28 1003.68 1005.02 1006.33
1005.51 1005.16 1004.74 1004.26 1003.73 1003.14 1002.50 1001.81 1001.06 1000.24 999.34 998.36 997.28 996.10 994.85 993.52 992.15 990.78 989.44 988.19 987.07 986.14 985.42 984.95 984.75 984.82 985.16 985.76 986.58 987.59 988.77 990.06 991.44 992.88 994.34 995.82 997.28 998.72 1000.14 1001.52 1002.87 1004.19 1005.48 1006.73
1005.68 1005.28 1004.82 1004.30 1003.74 1003.12 1002.45 1001.73 1000.95 1000.10 999.17 998.15 997.05 995.87 994.62 993.32 992.00 990.70 989.45 988.32 987.34 986.55 985.98 985.66 985.61 985.82 986.27 986.97 987.85 988.91 990.09 991.36 992.70 994.06 995.44 996.81 998.16 999.49 1000.80 1002.09 1003.36 1004.61 1005.86 1007.10
1005.86 1005.43 1004.95 1004.42 1003.84 1003.20 1002.52 1001.77 1000.96 1000.08 999.13 998.09 996.97 995.79 994.55 993.29 992.03 990.82 989.68 988.67 987.84 987.20 986.79 986.62 986.70 987.02 987.57 988.32 989.24 990.29 991.44 992.66 993.91 995.17 996.44 997.69 998.92 1000.15 1001.36 1002.57 1003.78 1005.00 1006.23 1007.46
Thickness
5409 5412 5407 5405 5406 5404 5397 5401 5405 5427 5437 5449 5450 5448 5450 5451 5454 5457 5462 5468 5474 5481 5490 5499 5508 5519 5530 5540 5551 5560 5568 5578 5588 5597 5603 5608 5611 5614 5615 5617 5619 5619 5620 5620
5401 5408 5404 5403 5409 5409 5408 5409 5410 5417 5428 5440 5440 5442 5444 5444 5447 5450 5455 5460 5466 5473 5481 5490 5500 5510 5521 5532 5542 5551 5560 5570 5580 5588 5595 5601 5606 5609 5610 5612 5613 5614 5615 5616
5395 5402 5395 5403 5418 5415 5414 5416 5414 5415 5427 5432 5432 5433 5435 5437 5440 5443 5448 5453 5459 5466 5474 5482 5491 5500 5511 5523 5533 5543 5554 5563 5572 5580 5587 5594 5599 5603 5606 5608 5609 5610 5611 5613
5381 5382 5379 5421 5419 5413 5411 5413 5412 5412 5417 5420 5422 5425 5427 5430 5433 5437 5441 5446 5452 5459 5467 5475 5483 5493 5502 5513 5525 5536 5546 5556 5565 5572 5580 5586 5592 5597 5601 5603 5604 5606 5607 5609
5372 5377 5396 5415 5412 5404 5400 5407 5407 5406 5411 5414 5415 5418 5424 5426 5426 5429 5434 5439 5445 5452 5459 5467 5477 5486 5495 5506 5518 5529 5539 5549 5558 5565 5572 5579 5585 5590 5595 5598 5600 5602 5602 5603
5366 5367 5383 5412 5406 5398 5391 5397 5404 5401 5403 5405 5406 5409 5422 5421 5419 5422 5426 5432 5438 5445 5452 5460 5469 5478 5488 5499 5511 5522 5533 5542 5551 5558 5566 5572 5579 5583 5587 5591 5594 5595 5596 5597
5364 5365 5386 5402 5393 5386 5381 5394 5395 5394 5395 5396 5398 5402 5409 5410 5413 5416 5420 5425 5431 5438 5446 5454 5462 5471 5481 5492 5504 5515 5524 5534 5543 5551 5559 5565 5570 5575 5579 5583 5586 5588 5589 5590
5362 5361 5379 5392 5380 5380 5386 5388 5385 5385 5386 5387 5390 5394 5397 5401 5405 5409 5414 5420 5426 5432 5441 5449 5457 5465 5476 5487 5498 5506 5516 5526 5536 5544 5551 5557 5562 5567 5571 5574 5578 5580 5581 5582
5371 5382 5389 5381 5378 5378 5377 5376 5377 5377 5378 5378 5381 5386 5390 5393 5398 5403 5408 5414 5419 5426 5435 5443 5451 5459 5470 5481 5490 5499 5509 5518 5527 5535 5543 5549 5555 5560 5564 5568 5572 5574 5576 5577
5363 5377 5377 5372 5371 5369 5367 5367 5368 5368 5369 5370 5372 5377 5381 5386 5390 5395 5401 5406 5412 5420 5429 5438 5446 5454 5464 5474 5483 5492 5502 5512 5520 5527 5535 5542 5548 5553 5558 5563 5568 5569 5571 5571
5359 5368 5367 5368 5364 5361 5360 5359 5358 5359 5360 5361 5364 5369 5373 5378 5383 5388 5394 5400 5406 5414 5423 5432 5439 5448 5458 5469 5478 5487 5495 5505 5512 5520 5528 5535 5541 5547 5554 5561 5566 5568 5570 5570
5360 5365 5359 5361 5358 5354 5351 5350 5350 5350 5353 5355 5356 5361 5366 5371 5376 5381 5387 5393 5401 5410 5419 5427 5435 5444 5454 5463 5472 5482 5490 5499 5507 5514 5521 5527 5533 5537 5543 5550 5554 5557 5561 5563
5354 5353 5350 5350 5348 5345 5342 5342 5342 5342 5344 5347 5351 5354 5358 5363 5368 5373 5380 5387 5395 5404 5413 5422 5431 5440 5450 5459 5467 5477 5486 5494 5502 5508 5515 5521 5526 5532 5536 5538 5541 5545 5548 5551
5342 5338 5338 5339 5338 5335 5333 5333 5333 5335 5337 5340 5344 5348 5351 5356 5361 5367 5374 5382 5390 5399 5409 5418 5427 5437 5446 5454 5463 5471 5480 5488 5495 5503 5511 5516 5520 5526 5532 5535 5536 5535 5536 5539
5332 5328 5328 5328 5326 5324 5323 5323 5325 5328 5331 5335 5338 5341 5345 5349 5356 5363 5370 5377 5385 5396 5406 5414 5424 5433 5441 5450 5458 5466 5475 5483 5491 5499 5505 5510 5514 5519 5524 5528 5529 5528 5528 5527
5323 5320 5319 5318 5317 5317 5316 5316 5318 5322 5325 5328 5332 5335 5339 5344 5351 5358 5365 5372 5381 5393 5403 5411 5420 5429 5437 5445 5453 5461 5470 5477 5485 5494 5499 5504 5508 5513 5517 5520 5522 5522 5523 5522
5313 5313 5312 5312 5311 5310 5309 5309 5311 5314 5317 5321 5325 5329 5334 5340 5347 5354 5361 5368 5377 5388 5399 5407 5417 5425 5433 5441 5449 5458 5465 5472 5478 5487 5494 5498 5503 5506 5511 5513 5515 5515 5514 5514
5306 5304 5303 5301 5301 5301 5302 5304 5306 5309 5312 5315 5319 5323 5329 5335 5343 5350 5358 5366 5375 5387 5396 5405 5413 5421 5429 5437 5445 5453 5461 5468 5475 5483 5489 5493 5496 5500 5503 5505 5506 5506 5504 5504
5298 5296 5296 5295 5295 5295 5297 5299 5301 5304 5308 5311 5315 5321 5326 5333 5339 5346 5354 5363 5374 5385 5395 5402 5409 5417 5425 5433 5440 5448 5455 5463 5469 5477 5482 5485 5489 5492 5495 5497 5497 5498 5498 5497
5292 5291 5290 5290 5291 5291 5293 5295 5298 5302 5305 5308 5313 5318 5325 5332 5338 5345 5353 5362 5372 5382 5390 5398 5406 5415 5422 5430 5436 5444 5451 5458 5465 5472 5476 5480 5484 5486 5487 5488 5489 5490 5490 5490
5285 5285 5285 5286 5287 5288 5289 5291 5294 5299 5303 5306 5311 5316 5323 5330 5337 5344 5353 5364 5374 5380 5388 5396 5404 5412 5420 5427 5434 5442 5448 5455 5461 5467 5471 5475 5478 5479 5480 5481 5482 5483 5483 5483
5280 5280 5280 5281 5283 5285 5288 5289 5292 5296 5301 5306 5311 5316 5322 5330 5337 5345 5353 5362 5371 5378 5386 5395 5403 5410 5417 5425 5432 5439 5446 5452 5457 5462 5466 5470 5472 5473 5475 5476 5476 5476 5476 5477
5274 5274 5275 5277 5279 5282 5285 5288 5292 5296 5301 5305 5311 5317 5323 5330 5337 5345 5355 5363 5369 5376 5384 5393 5401 5408 5416 5423 5431 5437 5443 5448 5453 5457 5462 5465 5467 5469 5470 5470 5471 5471 5471 5471
5270 5271 5272 5274 5276 5280 5284 5289 5292 5296 5301 5306 5311 5316 5323 5330 5339 5346 5353 5361 5368 5375 5384 5392 5400 5408 5415 5422 5429 5435 5440 5445 5449 5453 5456 5459 5461 5463 5464 5465 5465 5465 5465 5465
5265 5266 5269 5271 5276 5280 5284 5288 5292 5297 5303 5308 5313 5318 5323 5329 5336 5344 5352 5360 5367 5375 5384 5392 5400 5408 5414 5421 5426 5431 5436 5441 5445 5448 5451 5454 5456 5458 5459 5459 5460 5460 5460 5460
5262 5264 5267 5270 5272 5276 5281 5286 5291 5297 5302 5308 5314 5319 5324 5330 5336 5344 5351 5358 5366 5374 5383 5391 5398 5406 5413 5418 5423 5427 5432 5436 5440 5444 5447 5449 5451 5453 5454 5454 5454 5455 5455 5454
5259 5262 5266 5270 5273 5276 5280 5284 5290 5295 5300 5306 5312 5318 5324 5330 5336 5343 5350 5357 5365 5373 5381 5388 5396 5403 5409 5415 5419 5423 5427 5431 5436 5439 5442 5444 5446 5448 5449 5449 5450 5449 5449 5448